New Paris, IN

12:40 AM EST on February 25, 2017 (GMT -0500)
Goshen Municipal

Weather History for KGSH - January, 2014

Change the Weather History Date:

Friday, January 17, 2014

  Actual Average Record
Temperature  
Mean Temperature 18 °F -  
Max Temperature 25 °F 29 °F 63 °F (1952)
Min Temperature 12 °F 17 °F -16 °F (1977)
Degree Days  
Heating Degree Days 46    
Moisture  
Dew Point 12 °F    
Average Humidity 75    
Maximum Humidity 86    
Minimum Humidity 65    
Precipitation  
Precipitation 0.00 in - - ()
Sea Level Pressure  
Sea Level Pressure 29.86 in    
Wind  
Wind Speed 10 mph (WSW)    
Max Wind Speed 15 mph    
Max Gust Speed -    
Visibility 6 miles    
Events Snow    
Averages and records for this station are not official NWS values.
T = Trace of Precipitation, MM = Missing Value Source: NWS Daily Summary

Daily Weather History Graph

Daily Weather History Graph

Search for Another Location

Airport or City:

Trip Planner

Search our weather history database for the weather conditions in past years. The results will help you decide how hot, cold, wet, or windy it might be!

Date:

Astronomy

Jan. 17, 2014 Rise Set
Actual Time 8:06 AM EST 5:40 PM EST
Civil Twilight 7:35 AM EST 6:11 PM EST
Nautical Twilight 7:01 AM EST 6:45 PM EST
Astronomical Twilight 6:28 AM EST 7:18 PM EST
Moon 7:28 PM EST (1/17) 8:32 AM EST (1/17)
Length of Visible Light 10h 35m
Length of Day
9h 34m
Full, 98% of the Moon is Illuminated
Jan 17
Full
Jan 24
Last Quarter
Jan 30
New
Feb 6
First Quarter
Feb 14
Full

Hourly Weather History & Observations

Time (EST) Temp. Windchill Dew Point Humidity Pressure Visibility Wind Dir Wind Speed Gust Speed Precip Events Conditions
12:53 AM 25.0 °F 15.5 °F 15.1 °F 66% 29.68 in 10.0 mi WSW 9.2 mph - N/A   Scattered Clouds
1:53 AM 24.1 °F 13.1 °F 14.0 °F 65% 29.70 in 10.0 mi WSW 11.5 mph - N/A   Clear
2:53 AM 24.1 °F 15.2 °F 14.0 °F 65% 29.72 in 10.0 mi SW 8.1 mph - N/A   Overcast
3:53 AM 24.1 °F 17.0 °F 15.1 °F 69% 29.73 in 10.0 mi WSW 5.8 mph - N/A   Overcast
4:53 AM 24.1 °F 17.0 °F 15.1 °F 69% 29.73 in 10.0 mi West 5.8 mph - N/A   Overcast
5:53 AM 23.0 °F 17.0 °F 16.0 °F 74% 29.75 in 10.0 mi West 4.6 mph - N/A   Overcast
6:53 AM 23.0 °F 14.7 °F 15.1 °F 72% 29.77 in 8.0 mi West 6.9 mph - 0.00 in Snow Light Snow
8:45 AM 21.2 °F 10.9 °F 15.8 °F 80% 29.77 in 6.0 mi West 9.2 mph - N/A   Haze
8:53 AM 21.9 °F 12.5 °F 17.1 °F 82% 29.81 in 6.0 mi West 8.1 mph - N/A   Haze
9:21 AM 21.2 °F 10.9 °F 15.8 °F 80% 29.79 in 6.0 mi West 9.2 mph - N/A   Haze
9:53 AM 21.9 °F 12.5 °F 16.0 °F 78% 29.83 in 5.0 mi West 8.1 mph - N/A   Haze
10:53 AM 21.0 °F 9.9 °F 15.1 °F 78% 29.84 in 5.0 mi WSW 10.4 mph - 0.00 in   Haze
11:39 AM 19.4 °F 6.6 °F 14.0 °F 80% 29.83 in 2.5 mi WSW 12.7 mph - 0.00 in Snow Light Snow
11:53 AM 19.0 °F 6.1 °F 12.9 °F 77% 29.86 in 1.5 mi WSW 12.7 mph - 0.00 in Snow Light Snow
12:53 PM 19.0 °F 5.6 °F 12.9 °F 77% 29.85 in 1.8 mi WSW 13.8 mph - 0.00 in Snow Light Snow
1:05 PM 19.4 °F 6.0 °F 12.2 °F 74% 29.82 in 2.0 mi WSW 13.8 mph - 0.00 in Snow Light Snow
1:53 PM 18.0 °F 4.8 °F 10.9 °F 74% 29.86 in 2.5 mi WSW 12.7 mph - 0.00 in Snow Light Snow
2:22 PM 17.6 °F 4.3 °F 12.2 °F 79% 29.83 in 1.5 mi WSW 12.7 mph - 0.00 in Snow Light Snow
2:53 PM 18.0 °F 4.2 °F 12.0 °F 78% 29.88 in 1.5 mi West 13.8 mph - 0.00 in Snow Light Snow
3:46 PM 17.6 °F 4.3 °F 10.4 °F 73% 29.87 in 3.0 mi West 12.7 mph - 0.00 in Snow Light Snow
3:53 PM 17.1 °F 3.6 °F 9.0 °F 71% 29.92 in 5.0 mi WSW 12.7 mph - 0.00 in   Haze
4:53 PM 16.0 °F 1.1 °F 9.0 °F 74% 29.94 in 4.0 mi West 15.0 mph - 0.00 in   Haze
5:53 PM 15.1 °F 1.1 °F 7.0 °F 70% 29.96 in 9.0 mi WSW 12.7 mph - N/A   Overcast
6:28 PM 15.8 °F 4.2 °F 6.8 °F 68% 29.94 in 8.0 mi WSW 9.2 mph - N/A   Overcast
6:53 PM 14.0 °F 0.5 °F 8.1 °F 77% 29.99 in 3.0 mi WSW 11.5 mph - 0.00 in Snow Light Snow
7:31 PM 12.2 °F -1.0 °F 6.8 °F 79% 29.95 in 6.0 mi WSW 10.4 mph - 0.00 in Snow Light Snow
7:53 PM 12.9 °F 0.7 °F 6.1 °F 74% 29.99 in 10.0 mi SW 9.2 mph - 0.00 in   Overcast
8:53 PM 12.9 °F 0.7 °F 7.0 °F 77% 29.99 in 9.0 mi SW 9.2 mph - N/A   Overcast
9:53 PM 12.9 °F 1.6 °F 8.1 °F 81% 30.00 in 4.0 mi SSW 8.1 mph - 0.00 in Snow Light Snow
10:53 PM 14.0 °F 1.2 °F 9.0 °F 80% 29.99 in 6.0 mi SSW 10.4 mph - 0.00 in   Haze
11:12 PM 14.0 °F 1.2 °F 10.4 °F 86% 29.95 in 5.0 mi SW 10.4 mph - 0.00 in Snow Light Snow
11:53 PM 15.1 °F 2.5 °F 10.0 °F 80% 29.99 in 4.0 mi SSW 10.4 mph - 0.00 in Snow Light Snow